Wetbulb
58.67 58.81 58.92 59.15 59.15 59.08 59.45 59.79 59.75 60.13 60.26 60.21 60.60 60.55 61.34 61.94 61.00 64.17 62.47 64.93 69.40 73.37 69.77 64.52 66.92 65.88 66.38 64.00 64.84 65.96 60.83 58.21 58.36 59.55 62.29 65.41 65.62 69.03 69.28 68.31 69.14 70.22 68.26 71.73 72.64
58.96 59.01 59.04 58.63 58.74 58.93 59.34 59.38 59.34 59.85 59.88 60.03 60.14 60.48 61.15 61.96 62.59 61.63 69.43 73.03 72.67 73.65 64.10 64.75 63.35 64.16 63.04 61.28 63.16 61.50 60.08 58.48 62.22 62.23 61.81 65.06 65.29 65.14 66.46 65.39 67.37 68.47 71.39 72.73 72.25
58.71 58.49 58.24 58.26 58.64 58.89 58.97 58.60 59.07 59.19 59.19 59.39 59.83 60.55 61.17 62.03 61.39 60.95 74.26 70.13 72.48 70.02 65.80 65.41 64.20 63.53 60.95 60.60 60.37 61.02 58.84 60.28 60.90 62.12 63.32 63.29 64.65 66.86 65.75 62.73 65.58 67.20 68.82 71.49 71.06
58.13 58.11 58.02 58.07 58.37 58.48 58.56 58.64 58.61 58.51 58.86 59.18 59.90 60.60 61.68 62.80 54.76 62.53 72.58 75.09 73.93 66.06 65.09 63.69 62.68 61.37 60.17 57.84 61.07 59.38 60.49 60.67 61.00 62.29 61.59 63.22 64.85 63.91 65.01 67.41 69.04 69.83 71.35 71.12 70.39
57.72 57.57 57.64 57.68 58.04 58.24 58.34 58.16 58.08 58.03 58.51 59.09 60.02 60.78 63.05 60.50 59.42 63.56 74.29 72.52 65.89 63.58 62.33 62.20 61.36 61.84 58.41 58.53 59.39 58.85 60.07 60.50 61.58 62.84 62.59 64.75 63.67 64.34 64.65 68.37 70.08 71.62 70.92 70.48 70.53
57.42 57.42 57.23 57.32 57.50 57.78 58.01 58.03 57.79 57.85 58.37 59.32 60.50 60.99 62.51 55.90 62.70 66.28 66.98 67.00 64.47 63.06 62.02 62.62 62.45 63.13 60.33 58.82 58.03 60.59 59.76 60.25 61.06 60.34 62.03 61.81 62.52 64.94 66.12 68.81 69.07 68.91 69.68 71.17 70.67
57.28 57.11 57.15 57.00 57.05 57.59 57.67 57.48 57.37 57.63 58.37 59.75 60.92 62.95 60.28 59.20 62.11 63.82 64.98 64.30 63.98 62.49 61.17 63.30 64.20 61.70 62.49 59.03 61.21 59.80 57.57 59.77 60.59 59.24 60.59 62.43 61.73 61.67 66.60 67.70 67.59 68.07 69.52 70.89 71.22
57.03 56.86 56.88 56.88 56.98 57.34 57.41 57.07 56.68 57.97 59.35 61.02 61.99 62.59 58.41 62.71 63.76 61.12 64.00 63.71 64.42 64.07 63.48 64.67 64.20 61.84 61.40 61.84 59.48 57.80 58.17 55.89 58.89 58.73 61.38 59.46 56.84 60.41 62.99 65.33 66.73 67.48 68.86 70.03 70.36
57.66 57.13 56.59 56.55 57.25 57.07 56.82 56.35 57.41 59.72 61.96 62.43 61.72 60.90 57.30 64.12 58.45 60.74 63.19 61.38 62.43 62.67 63.39 63.58 62.12 59.96 60.60 57.94 55.20 56.80 53.34 54.81 55.22 59.86 58.16 58.22 55.91 64.38 66.32 65.05 65.24 67.08 68.72 69.45 69.93
57.58 57.33 57.29 56.33 56.77 56.55 56.06 56.08 60.61 60.04 61.58 63.94 62.30 58.97 60.64 57.74 58.35 59.91 63.56 63.16 60.52 60.23 59.18 59.11 57.99 56.05 57.09 55.37 50.30 53.14 53.86 54.19 53.57 56.84 57.64 56.08 57.01 60.10 62.11 64.61 64.47 65.89 67.80 68.75 68.93
57.56 57.17 56.87 56.84 56.49 56.09 55.84 60.88 59.08 58.43 62.14 57.70 57.60 58.65 57.62 60.07 61.25 60.12 62.67 61.19 60.42 58.59 54.30 56.77 53.49 52.49 54.77 56.80 56.59 55.13 54.10 53.18 55.46 57.17 56.02 55.57 56.03 60.02 61.71 63.70 64.45 64.65 67.63 68.10 68.46
57.17 56.94 56.60 56.73 56.35 55.71 56.09 61.05 61.65 61.22 56.81 59.67 59.09 58.73 60.80 60.66 55.88 58.36 62.37 57.91 57.39 54.21 55.79 54.70 52.54 55.60 57.25 56.61 54.90 54.13 53.33 53.57 56.05 57.53 56.61 55.88 57.86 58.83 61.33 60.72 61.21 65.64 66.35 66.22 65.78
56.82 56.62 56.42 56.22 55.57 55.19 58.47 59.38 65.40 62.91 58.04 57.39 57.96 57.22 58.61 59.47 56.49 56.60 59.86 58.46 56.21 53.95 54.35 52.96 54.98 56.59 54.90 54.60 52.82 54.01 53.52 53.72 53.33 55.04 56.12 56.19 55.66 56.03 58.84 61.16 63.28 64.48 67.27 68.73 64.66
56.34 56.27 55.94 55.45 51.74 60.37 57.70 61.38 63.43 63.70 54.64 54.78 54.47 57.40 59.01 58.45 56.46 60.68 60.76 58.53 56.11 53.60 54.59 54.38 56.40 54.68 53.86 52.99 54.75 52.39 56.09 55.07 53.39 53.05 50.03 57.29 47.85 52.72 55.13 56.66 58.35 61.20 66.50 66.96 68.56
55.95 55.51 55.37 53.28 57.31 60.02 62.28 64.74 63.97 62.45 47.07 55.02 55.42 62.09 60.33 57.33 58.50 57.86 61.08 58.44 54.65 54.96 55.07 53.67 53.92 53.29 52.49 53.35 56.17 53.83 56.30 54.75 54.24 52.75 52.74 54.07 51.08 53.43 56.21 53.52 57.83 62.16 66.02 67.21 67.54
54.82 54.88 55.04 55.72 58.83 64.26 66.61 65.11 62.98 52.38 47.44 52.56 56.27 55.94 56.14 57.55 57.88 57.71 57.05 59.00 59.10 57.02 56.52 54.86 58.61 56.18 54.81 56.17 56.66 56.95 54.68 54.74 54.61 53.54 49.15 52.81 52.44 52.31 54.29 57.52 60.75 63.75 65.30 66.35 67.11
53.24 53.46 54.56 62.60 63.50 66.53 65.51 61.39 52.09 48.34 56.22 52.36 53.40 54.94 55.52 55.50 55.88 55.52 53.96 53.90 53.31 51.81 53.39 55.51 55.00 56.73 57.10 54.74 56.86 55.74 53.03 48.29 47.58 48.07 48.15 52.70 52.01 52.70 58.51 60.90 63.45 63.54 64.62 65.96 68.25
52.46 51.95 55.48 61.41 65.59 65.48 63.16 56.71 49.77 54.31 55.20 56.24 54.75 54.75 53.64 56.24 55.87 54.93 54.31 53.08 56.02 55.81 53.92 51.70 50.11 55.32 56.98 55.00 53.60 54.41 53.74 49.08 45.21 45.02 48.47 53.74 50.36 51.76 58.83 63.25 65.17 66.36 66.76 67.55 68.20
51.72 57.84 62.27 65.19 64.17 64.89 59.38 52.98 54.23 56.97 56.86 55.41 55.62 53.15 53.53 55.84 55.99 55.51 55.06 54.76 56.57 57.02 52.99 52.09 52.80 57.07 57.02 57.11 56.37 53.97 52.30 55.46 51.04 51.14 49.78 52.16 54.20 56.25 57.57 59.46 60.23 60.91 65.84 66.77 68.28
61.27 64.44 64.85 66.67 65.97 63.10 57.99 51.94 57.00 58.93 57.72 57.47 53.27 55.24 53.08 54.41 53.98 54.42 54.90 57.19 56.14 57.44 58.51 55.85 52.13 57.31 57.29 57.55 57.42 55.20 56.53 50.65 51.49 46.79 44.68 49.76 51.87 51.60 52.16 54.47 58.73 60.89 64.86 66.48 68.99
61.00 63.16 65.63 66.85 65.85 60.57 55.42 57.26 57.62 59.83 59.39 57.00 55.85 55.00 55.02 53.98 54.34 54.28 54.42 57.27 57.33 58.16 58.85 57.00 54.74 54.25 57.24 55.02 54.70 55.13 53.42 54.14 53.96 53.37 47.89 46.63 49.93 57.38 56.78 57.75 59.07 63.33 65.98 66.89 68.24
63.80 60.49 65.34 65.38 57.43 58.69 56.54 58.35 54.92 58.05 59.91 58.45 58.96 57.96 56.31 55.94 54.93 55.09 55.87 58.41 60.42 59.19 56.36 58.54 56.26 52.28 53.24 57.76 58.44 57.41 55.82 55.24 50.62 50.57 52.06 50.95 51.74 59.22 59.07 60.74 62.67 64.39 66.35 67.47 68.80
63.13 64.12 65.13 63.16 55.21 56.24 59.66 58.82 58.96 57.79 58.12 57.82 57.24 58.71 59.09 56.76 54.51 56.57 57.45 60.37 60.39 58.53 58.12 59.04 56.16 50.39 51.70 55.14 57.62 56.04 56.65 56.61 56.26 54.83 53.06 49.15 51.39 60.33 60.09 56.93 60.89 63.77 64.82 67.35 69.95
62.93 58.22 59.93 60.39 60.41 58.98 58.03 57.50 56.54 59.88 58.92 59.99 59.29 59.64 57.73 56.24 57.94 56.21 56.39 58.82 59.95 58.75 62.83 61.76 53.83 51.47 48.29 51.61 54.96 53.92 56.06 57.22 56.02 51.74 51.40 51.87 52.31 55.74 57.17 57.83 60.45 63.83 65.06 66.53 69.23
63.69 60.56 61.52 55.81 56.61 58.53 59.49 59.59 56.70 56.14 58.86 59.81 58.40 58.12 57.50 55.97 56.54 56.04 57.34 57.73 59.25 61.00 59.43 57.46 52.35 53.94 54.31 54.82 54.58 53.84 53.59 54.35 53.54 54.09 51.17 53.15 53.37 57.60 56.82 58.31 61.27 64.48 66.42 66.86 67.58
60.75 60.35 62.25 59.96 60.52 59.43 55.08 58.60 57.56 57.72 58.36 57.56 57.16 58.40 58.16 56.31 56.79 55.44 57.50 57.71 56.24 58.47 57.82 57.90 53.63 55.07 53.09 54.87 54.68 52.83 53.67 54.15 54.29 54.21 54.28 54.44 55.50 61.11 60.42 59.31 61.94 65.36 66.23 66.63 67.45
61.74 63.92 62.07 58.33 58.81 57.56 57.72 57.90 57.94 59.39 59.67 59.63 59.21 58.46 57.14 58.82 60.48 60.47 59.84 58.82 57.94 56.52 56.14 56.09 54.50 53.42 50.02 53.92 53.34 50.11 53.87 54.84 55.31 56.67 56.65 53.40 60.32 63.72 61.89 62.95 64.60 65.06 65.62 66.23 67.25
MSLP
1016.94 1016.72 1016.50 1016.23 1015.98 1015.74 1015.44 1015.16 1014.86 1014.53 1014.22 1013.85 1013.52 1013.09 1012.59 1011.99 1010.61 1009.28 1007.93 1006.85 1006.55 1006.41 1006.32 1005.14 1003.61 1002.70 1001.94 1001.42 1001.57 1001.30 1001.84 1002.01 1002.27 1002.33 1002.46 1002.11 1002.48 1002.62 1002.49 1003.05 1003.64 1005.08 1006.22 1006.43 1006.70
1016.92 1016.66 1016.41 1016.18 1015.91 1015.67 1015.39 1015.12 1014.82 1014.46 1014.14 1013.80 1013.39 1013.02 1012.61 1012.06 1010.32 1007.79 1006.46 1006.45 1006.38 1006.40 1005.81 1004.31 1002.83 1002.23 1001.38 1001.20 1001.38 1001.10 1001.70 1002.29 1002.57 1002.33 1002.18 1002.84 1002.06 1002.06 1002.76 1004.07 1004.60 1005.08 1005.87 1005.85 1006.52
1016.88 1016.65 1016.40 1016.11 1015.81 1015.52 1015.30 1015.09 1014.73 1014.39 1014.05 1013.74 1013.31 1012.84 1012.55 1012.11 1009.46 1006.17 1006.49 1006.46 1006.20 1006.40 1005.80 1004.52 1003.24 1002.11 1000.84 1000.88 1001.51 1001.61 1001.84 1002.17 1002.20 1002.52 1002.29 1001.82 1002.79 1001.65 1002.42 1005.30 1006.97 1005.28 1005.74 1005.78 1006.39
1016.86 1016.59 1016.32 1016.02 1015.70 1015.44 1015.18 1014.92 1014.62 1014.29 1013.91 1013.59 1013.20 1012.71 1012.23 1011.30 1007.61 1005.79 1006.25 1006.38 1006.34 1006.16 1005.59 1004.19 1002.85 1001.80 1000.74 1000.75 1001.31 1001.62 1001.83 1001.75 1001.48 1001.74 1001.97 1001.82 1001.56 1001.61 1002.09 1003.63 1004.81 1004.95 1004.56 1004.97 1005.86
1016.78 1016.50 1016.22 1015.93 1015.62 1015.36 1015.06 1014.76 1014.47 1014.15 1013.79 1013.45 1013.09 1012.74 1011.26 1009.09 1005.94 1005.71 1006.00 1006.20 1006.04 1005.96 1005.14 1003.58 1002.50 1001.47 1000.86 1000.84 1001.25 1001.20 1001.15 1001.07 1000.90 1001.10 1001.37 1001.41 1001.61 1001.62 1001.97 1002.18 1003.16 1004.04 1004.62 1004.57 1005.34
1016.66 1016.37 1016.05 1015.79 1015.52 1015.23 1014.94 1014.62 1014.29 1013.99 1013.66 1013.31 1013.02 1012.82 1011.21 1007.29 1004.61 1004.81 1005.01 1005.38 1005.10 1005.12 1004.43 1003.37 1002.26 1002.03 1001.61 1001.23 1001.40 1001.49 1001.38 1000.81 1000.60 1000.72 1000.81 1001.21 1001.47 1001.74 1002.86 1002.85 1002.55 1003.15 1003.38 1004.23 1005.15
1016.48 1016.16 1015.83 1015.58 1015.36 1015.06 1014.74 1014.43 1014.10 1013.75 1013.40 1013.11 1012.96 1012.32 1009.35 1005.76 1004.38 1004.36 1004.59 1004.49 1004.39 1004.17 1003.53 1002.98 1002.67 1002.47 1001.83 1001.35 1001.43 1001.50 1001.14 1000.24 1000.14 1000.54 1000.72 1001.10 1001.77 1002.15 1004.50 1002.68 1002.16 1002.72 1003.02 1003.82 1004.73
1016.23 1015.92 1015.61 1015.33 1015.09 1014.84 1014.54 1014.19 1013.80 1013.40 1013.00 1012.72 1012.74 1011.55 1007.40 1004.45 1004.18 1004.49 1004.22 1003.98 1003.94 1003.77 1003.37 1002.95 1002.88 1003.04 1002.39 1001.70 1001.40 1001.10 1000.75 999.81 999.94 1000.24 1000.45 1000.91 1001.55 1004.12 1005.16 1003.62 1001.86 1002.08 1002.66 1003.52 1004.09
1015.94 1015.62 1015.33 1015.05 1014.82 1014.57 1014.25 1013.89 1013.35 1012.90 1012.58 1012.39 1011.90 1009.94 1005.69 1004.84 1004.42 1004.24 1003.92 1003.55 1003.62 1003.66 1003.59 1003.49 1003.77 1003.05 1002.25 1001.47 1000.76 1000.35 999.89 999.62 999.78 999.72 1000.21 1000.56 1000.99 1001.61 1002.42 1001.44 1001.66 1001.85 1001.98 1002.91 1003.76
1015.68 1015.33 1015.05 1014.76 1014.56 1014.34 1013.99 1013.66 1012.64 1012.61 1011.96 1010.94 1009.86 1008.37 1004.84 1003.43 1003.28 1003.56 1003.55 1003.25 1003.25 1003.28 1003.36 1003.47 1003.37 1002.62 1001.77 1001.01 1000.17 1000.07 1000.01 999.47 999.62 999.74 999.90 1000.45 1000.58 1000.53 1000.46 1000.81 1001.06 1001.14 1001.93 1002.46 1003.27
1015.44 1015.09 1014.80 1014.56 1014.37 1014.22 1013.59 1012.53 1012.20 1010.92 1009.31 1006.71 1005.68 1004.43 1002.68 1002.34 1002.93 1003.11 1003.27 1003.32 1003.01 1002.82 1002.74 1002.52 1002.34 1001.48 1000.53 1000.04 1000.04 1000.41 1000.22 999.91 999.47 999.49 1000.15 1000.89 1001.38 1001.82 1003.50 1002.78 1001.08 1001.07 1001.47 1001.98 1003.02
1015.20 1014.84 1014.59 1014.38 1014.22 1014.18 1013.96 1010.10 1006.68 1005.96 1005.59 1005.34 1004.45 1003.38 1002.82 1002.63 1002.81 1002.86 1003.07 1003.18 1002.75 1002.31 1002.11 1001.75 1000.98 1000.50 1000.10 999.97 1000.47 1000.37 1000.10 999.49 998.76 999.37 1000.04 1000.87 1003.10 1003.99 1005.06 1004.69 1004.81 1001.42 1001.36 1002.48 1005.08
1014.91 1014.56 1014.32 1014.22 1014.12 1013.81 1011.03 1008.13 1006.37 1005.74 1004.41 1003.12 1003.26 1002.87 1002.62 1002.62 1001.85 1002.05 1002.75 1002.64 1002.07 1001.96 1001.36 1000.76 999.89 999.83 1000.11 1000.00 1000.33 1000.04 999.49 998.82 998.90 999.37 999.97 1000.73 1004.38 1005.72 1006.71 1006.54 1004.54 1002.90 1001.43 1002.16 1004.24
1014.55 1014.25 1014.10 1014.09 1014.29 1009.94 1008.89 1007.42 1006.91 1006.03 1004.08 1001.94 1002.15 1001.78 1001.79 1002.12 1001.35 1001.02 1002.14 1002.14 1001.68 1001.31 1000.80 1000.35 1000.13 999.93 1000.14 1000.03 999.79 999.19 998.84 998.96 999.04 999.38 999.71 1000.30 1005.16 1007.46 1008.12 1006.76 1005.13 1003.52 1001.63 1001.33 1002.13
1014.15 1013.95 1013.91 1014.22 1012.26 1008.21 1006.04 1005.89 1006.08 1005.74 1002.72 1001.11 1000.94 1000.56 1001.17 1001.30 1000.43 1000.99 1001.63 1001.84 1001.23 1000.73 1000.93 999.86 999.70 999.72 999.90 999.59 999.39 999.22 999.09 999.10 999.01 999.15 999.46 1000.52 1003.57 1006.04 1007.37 1006.92 1004.42 1002.71 1001.21 1000.31 1000.57
1013.65 1013.57 1013.75 1013.29 1011.81 1008.08 1006.29 1006.14 1006.03 1004.67 1000.74 999.98 1000.41 1000.70 1000.73 1000.87 1000.37 1000.97 1001.55 1001.74 1001.13 1000.71 1000.35 1000.00 999.61 999.51 999.48 999.33 999.21 999.17 999.07 998.78 998.50 998.48 999.16 1001.34 1002.90 1005.03 1005.03 1003.38 1002.33 1000.70 1000.14 999.71 999.84
1013.10 1013.05 1013.30 1010.53 1007.42 1006.21 1006.25 1005.83 1004.57 1001.78 999.48 999.35 999.77 1000.05 1000.13 1000.08 1000.03 1000.89 1001.26 1001.32 1000.89 1000.48 999.54 999.22 999.15 999.15 999.45 999.15 998.85 998.81 998.41 997.77 997.80 997.80 1000.11 1000.69 1002.92 1006.27 1003.86 1003.10 1001.34 1000.27 1000.16 999.89 999.74
1012.91 1012.89 1011.46 1009.74 1007.99 1006.78 1005.99 1005.07 1002.45 998.89 998.17 998.41 998.93 999.58 999.50 999.12 999.67 1000.46 1000.64 1000.42 1000.30 999.78 998.64 998.56 998.60 998.29 998.67 998.97 998.62 998.16 997.79 997.54 997.18 997.49 998.88 1001.33 1003.35 1006.50 1007.26 1003.62 1001.62 999.88 999.54 999.75 999.90
1013.26 1012.10 1009.81 1007.15 1007.98 1006.53 1005.51 1003.34 1000.60 998.21 997.36 997.47 998.16 998.78 998.80 998.77 998.88 999.59 999.77 999.09 998.75 998.80 998.59 999.45 998.32 997.82 997.87 998.30 998.46 997.75 997.43 997.31 997.28 997.31 998.96 1001.21 1004.69 1007.18 1007.29 1004.29 1002.33 1001.50 999.32 999.68 1000.25
1011.95 1008.82 1005.92 1005.72 1006.39 1006.10 1004.70 1001.92 999.87 998.20 997.27 997.27 997.41 997.96 997.73 998.30 998.89 998.87 998.86 998.41 998.45 998.83 999.11 998.72 998.30 998.14 997.77 998.21 998.17 998.19 998.00 997.71 997.45 997.91 999.24 1000.16 1002.50 1006.12 1007.24 1005.71 1003.17 1002.01 1000.07 1000.09 1000.63
1011.27 1006.97 1004.43 1004.87 1005.48 1005.08 1003.15 1000.73 999.15 998.69 998.20 997.43 997.90 997.30 997.14 997.82 998.42 998.20 998.40 998.62 998.92 999.17 999.54 999.52 999.03 998.64 998.14 997.95 997.97 997.53 997.68 998.66 998.64 998.40 998.69 1000.04 1002.57 1004.73 1005.40 1003.49 1003.10 1000.93 1000.61 1000.59 1000.74
1009.14 1005.51 1004.23 1004.43 1004.41 1003.25 1001.86 1001.09 999.68 998.75 998.79 997.95 997.87 997.16 998.10 997.46 997.82 998.85 998.71 999.32 999.93 999.93 999.97 999.74 999.38 998.69 998.32 998.21 998.58 998.12 997.49 997.93 998.08 997.94 998.32 1000.21 1003.50 1003.85 1004.46 1004.32 1003.30 1001.97 1001.43 1001.53 1001.32
1008.53 1004.52 1003.90 1003.75 1002.67 1001.29 1000.64 1000.03 999.56 999.06 998.70 998.43 998.05 998.33 998.09 998.22 998.63 998.52 998.92 1000.10 1000.57 1000.77 1001.56 1001.23 1000.09 999.59 998.57 998.69 999.07 998.69 998.91 998.74 998.12 997.43 998.00 999.60 1003.08 1004.27 1004.09 1005.30 1006.01 1003.86 1002.32 1001.96 1001.69
1008.70 1003.79 1003.31 1003.41 1002.72 1001.54 1000.82 999.76 999.91 999.95 999.26 999.26 999.05 999.11 999.15 999.04 999.42 999.55 999.52 999.84 1000.91 1001.38 1002.33 1002.40 1001.73 1001.15 1000.30 999.76 999.64 999.34 999.14 998.78 998.29 997.82 998.13 999.46 1002.35 1004.18 1006.15 1006.32 1006.77 1005.13 1002.88 1002.00 1001.93
1008.04 1004.52 1002.73 1002.35 1001.87 1001.18 1001.57 1000.27 999.69 999.98 1000.23 1000.32 1000.22 1000.16 999.97 999.95 999.68 999.80 999.98 1000.05 1000.54 1001.66 1002.15 1002.25 1001.84 1001.54 1000.95 1000.45 1000.08 999.54 998.93 998.64 998.41 998.55 998.91 999.50 1000.28 1002.41 1005.06 1005.44 1005.52 1005.16 1003.62 1002.81 1002.64
1008.25 1006.55 1005.04 1003.08 1002.39 1001.63 1001.29 1000.82 1000.17 1000.14 1000.75 1000.50 1000.81 1000.61 1001.08 1001.25 1001.14 1000.88 1000.88 1001.00 1001.39 1001.58 1001.65 1001.76 1001.78 1001.79 1001.45 1001.08 1000.27 999.43 998.92 998.60 998.43 998.43 998.90 999.48 1000.66 1002.67 1004.26 1005.09 1005.78 1004.51 1004.05 1003.73 1003.35
1010.32 1008.37 1006.91 1004.51 1002.84 1002.27 1001.52 1001.33 1001.25 1001.56 1001.91 1001.93 1001.91 1001.93 1002.01 1002.79 1002.57 1002.19 1002.36 1002.28 1001.93 1001.83 1001.82 1002.10 1002.26 1002.42 1001.89 1001.52 1000.74 999.72 998.51 998.12 998.14 998.44 999.09 999.70 1000.96 1002.02 1003.86 1004.73 1004.89 1005.18 1004.95 1004.37 1004.20
Wind_Speed
10 10 11 11 12 12 12 13 14 14 14 16 16 17 17 18 22 8 11 2 2 4 7 13 14 13 12 4 3 9 2 5 9 11 5 3 4 9 6 4 5 12 15 16 19
11 11 11 12 12 12 12 13 14 14 15 16 17 17 16 16 10 16 1 4 3 4 10 16 14 9 12 3 1 10 6 6 7 10 10 9 10 2 4 6 10 9 16 18 18
12 11 11 12 12 12 12 13 13 14 15 16 17 17 16 15 11 10 2 3 4 4 12 17 13 14 15 3 3 8 5 2 2 5 8 11 8 5 5 7 11 2 16 19 17
12 12 12 12 12 12 12 13 13 14 15 16 16 18 16 7 4 7 6 1 2 7 11 17 12 14 13 3 8 6 3 4 2 5 5 8 9 5 3 11 22 18 20 17 15
12 12 12 12 13 12 13 13 14 14 15 16 16 15 11 9 13 10 8 6 8 9 13 15 13 13 8 4 2 6 5 7 5 6 2 7 7 4 4 9 10 16 14 17 15
13 13 13 13 13 13 13 13 14 15 15 15 14 15 8 14 6 12 11 9 12 12 14 14 10 12 7 5 4 6 9 12 2 8 6 3 10 5 13 21 10 6 10 16 14
14 13 13 13 13 13 14 14 15 16 16 15 12 8 11 16 2 3 6 10 12 13 16 9 9 9 11 10 7 6 12 13 8 3 7 9 9 6 24 7 9 8 12 15 16
15 14 14 14 14 14 13 14 16 16 16 14 8 9 9 11 6 7 9 9 9 9 14 10 3 11 13 7 8 13 11 11 7 2 4 9 7 17 25 31 9 12 10 14 15
13 14 14 14 13 12 13 16 18 15 12 9 7 9 14 3 11 13 13 11 9 10 10 5 7 12 15 14 14 13 11 4 6 9 3 8 10 18 32 11 10 13 15 16 14
13 13 12 13 11 12 13 15 9 12 7 10 11 10 11 12 12 13 13 12 7 9 10 10 10 13 14 11 12 4 11 6 5 6 5 10 14 10 8 12 11 12 16 15 15
14 13 11 11 9 10 13 6 6 7 13 10 13 12 6 7 11 10 12 10 13 8 11 15 11 14 16 14 7 8 12 10 13 1 7 10 12 12 35 32 9 12 18 19 20
14 13 11 9 8 7 7 8 10 10 8 23 18 12 8 6 8 12 13 11 12 12 14 12 13 13 15 4 6 10 11 16 13 5 8 11 15 18 29 33 25 10 9 18 10
13 12 10 8 6 5 12 16 8 12 8 19 16 14 10 8 12 14 14 15 11 11 15 14 17 2 9 5 8 13 15 14 10 12 14 15 15 16 15 29 24 27 11 20 23
13 11 8 2 2 10 13 16 14 11 7 16 16 10 14 10 9 14 15 13 10 11 14 9 14 9 9 11 12 15 8 11 12 12 11 7 5 1 6 15 22 26 17 12 24
14 10 7 12 12 9 5 5 9 5 8 18 15 10 12 17 12 10 13 15 15 10 6 12 8 10 9 13 13 12 14 15 15 15 16 5 7 7 8 11 18 24 20 13 10
14 9 6 6 7 14 3 4 6 8 6 12 12 13 15 15 7 10 12 15 10 14 8 16 7 9 12 11 11 12 13 18 19 16 12 9 6 5 7 9 3 6 5 7 6
12 8 9 10 3 6 7 7 7 11 15 13 16 17 17 14 11 10 14 13 13 10 12 18 16 13 8 12 12 13 17 14 8 2 5 9 7 10 5 10 5 5 5 6 8
10 9 15 10 12 7 7 9 10 13 12 13 14 16 15 14 14 12 12 13 15 14 15 8 5 13 12 12 14 14 15 9 16 11 9 5 6 6 16 11 1 13 8 4 5
4 6 7 9 13 7 8 10 8 16 10 11 17 15 14 12 8 12 16 15 18 14 8 9 12 7 9 8 13 13 12 13 13 11 13 5 16 13 7 23 24 14 13 8 3
5 8 9 14 12 7 8 15 12 11 0 9 11 12 13 10 8 11 13 9 2 4 9 13 5 7 9 10 11 12 13 12 8 6 5 1 7 11 11 16 24 17 13 9 7
6 8 10 11 8 7 10 13 2 3 9 8 5 11 7 14 11 12 2 9 3 2 1 11 12 3 6 9 12 8 14 10 15 14 7 6 8 16 22 21 20 10 12 8 8
7 9 9 10 8 9 13 21 4 7 7 7 8 10 6 9 9 5 13 14 9 6 10 13 9 12 16 14 20 23 13 8 9 14 7 5 4 7 12 26 17 11 9 8 8
6 7 8 9 9 10 12 4 8 1 8 3 5 5 7 3 2 9 8 10 7 6 11 12 7 9 12 10 17 17 16 18 23 17 13 6 4 7 7 28 38 12 5 8 6
7 2 6 8 12 18 15 8 7 2 5 8 6 7 2 3 5 7 5 6 7 2 7 5 12 15 14 17 11 11 12 16 20 14 16 14 11 14 11 12 17 18 2 8 7
7 8 7 8 13 14 11 10 8 7 5 4 3 8 5 8 7 5 7 7 6 12 4 5 12 13 16 18 19 20 19 17 18 16 17 19 19 17 16 14 21 18 3 8 7
7 7 10 12 4 8 2 8 9 5 1 2 7 6 3 7 10 12 11 9 5 4 9 6 11 12 16 17 19 19 18 18 17 16 15 16 7 15 16 16 16 3 6 8 10
8 8 7 8 10 9 6 3 1 8 4 5 10 8 8 12 12 12 10 14 14 12 11 10 10 12 15 16 16 16 13 12 10 8 13 12 17 18 22 14 9 5 7 9 11
Wind_Direction
342 339 336 335 333 330 328 329 328 326 325 322 322 322 322 322 308 244 261 72 29 349 313 273 267 259 247 263 292 276 347 19 23 356 81 133 117 252 336 67 89 111 149 183 151
334 332 331 330 328 327 326 327 322 322 322 321 320 320 323 327 290 269 148 151 92 13 281 280 296 286 262 146 327 304 66 9 54 341 347 83 265 65 113 64 352 124 155 153 161
331 329 327 326 325 324 324 321 319 319 318 319 317 319 321 315 271 241 110 200 83 255 277 291 291 273 281 155 10 356 54 3 50 59 318 322 11 184 136 63 329 200 145 145 166
329 325 323 320 320 321 319 316 316 315 315 315 316 319 313 271 289 94 148 171 173 265 278 273 260 261 275 359 105 260 228 209 126 134 311 307 347 42 275 174 179 229 156 147 169
326 322 318 315 316 315 313 310 310 309 309 310 314 322 312 232 251 134 162 174 211 231 256 266 272 275 297 21 344 241 1 287 55 170 258 247 258 288 309 125 136 138 215 150 165
325 319 315 312 310 310 307 307 305 302 301 302 309 315 248 254 78 148 200 170 228 214 243 260 271 10 299 324 260 12 281 280 120 313 284 252 291 226 70 294 132 169 157 156 168
325 318 312 309 307 305 304 302 299 296 293 293 300 291 264 246 12 181 207 220 216 208 239 236 294 288 304 281 55 253 263 275 193 6 265 343 324 259 358 263 164 192 161 168 161
325 317 310 306 303 302 298 297 296 289 288 281 278 263 258 213 246 215 229 230 238 232 265 322 358 284 284 272 268 249 259 281 144 107 154 272 294 128 203 255 198 183 165 162 187
316 313 310 304 300 297 293 296 292 286 269 273 237 227 256 124 222 232 229 218 204 232 237 315 271 267 274 265 267 214 266 209 308 187 207 258 301 182 202 199 203 172 177 170 187
315 311 305 302 299 296 295 290 301 298 223 224 261 258 261 231 182 197 207 241 195 223 221 221 236 246 241 254 255 7 294 359 320 282 340 300 295 338 306 192 206 208 178 174 176
318 313 308 301 295 302 307 203 203 198 231 223 162 243 154 118 128 197 193 217 229 229 229 215 233 236 245 243 327 335 296 294 268 207 312 290 282 359 7 350 216 239 182 186 179
317 312 307 299 294 306 279 250 22 333 255 223 266 228 295 149 183 197 192 215 221 237 212 247 225 243 268 314 312 275 258 267 267 176 250 274 38 22 13 334 316 244 245 142 225
314 309 302 296 296 249 232 243 312 320 264 177 211 218 195 228 222 182 192 213 228 233 253 241 268 137 256 249 243 248 254 274 347 325 284 255 37 36 15 315 325 331 260 165 161
313 305 292 292 290 215 220 239 268 280 275 160 196 221 182 217 241 183 188 222 238 245 243 265 255 248 263 251 254 265 333 320 300 294 292 259 123 56 187 23 306 292 267 222 178
314 297 266 225 323 230 93 197 203 245 269 139 168 149 177 214 125 195 167 225 262 228 254 251 222 250 241 249 255 268 314 298 289 277 268 336 102 261 243 199 247 262 229 228 267
315 275 218 201 225 265 287 126 237 228 244 149 148 185 181 217 204 139 180 238 251 287 247 266 295 257 239 239 249 269 284 270 262 262 254 0 291 200 233 236 223 45 348 327 283
324 233 202 312 253 190 218 205 216 249 138 147 170 174 188 194 175 171 194 203 234 211 231 231 234 225 237 275 260 259 260 279 291 267 269 230 255 45 256 260 122 71 50 333 340
345 173 218 260 313 257 224 221 252 233 200 151 169 177 201 183 176 181 193 222 226 270 272 246 234 211 190 226 279 286 292 288 303 326 229 184 156 297 322 335 154 120 99 71 335
309 198 248 225 225 253 231 229 248 269 115 173 161 184 204 175 231 181 220 219 220 212 310 65 310 135 199 211 234 280 291 317 296 318 25 106 101 62 308 339 294 317 90 74 55
264 229 202 142 175 222 242 248 274 347 1 181 175 203 188 175 215 197 189 233 22 25 334 315 265 242 255 204 240 265 305 309 313 317 327 199 132 147 126 232 264 288 77 74 87
242 242 127 161 186 229 246 279 160 203 273 303 16 227 207 168 212 197 230 117 160 55 244 308 307 256 227 222 316 253 238 10 315 315 289 342 64 159 189 205 229 82 78 63 101
268 265 144 171 216 224 235 254 2 136 237 289 268 322 156 181 190 78 81 70 47 340 307 328 312 306 313 158 216 269 344 266 249 274 287 353 81 347 14 359 6 83 65 50 55
264 244 163 206 234 229 208 217 231 245 198 256 281 0 10 27 1 328 66 93 52 336 28 0 313 315 298 30 341 342 332 308 299 297 298 275 120 276 28 58 321 334 46 104 125
278 222 153 210 259 280 325 187 204 319 35 341 1 337 343 287 177 298 332 140 98 37 68 329 283 280 288 309 306 266 252 262 281 307 322 340 135 214 97 129 214 286 109 94 86
246 308 19 191 221 247 239 327 161 173 245 307 201 294 344 315 314 232 237 237 180 133 213 262 271 285 297 310 311 306 303 298 294 293 299 305 309 128 128 129 238 254 136 80 66
333 350 340 305 300 326 293 264 286 53 162 258 229 314 309 310 310 311 358 342 309 217 262 278 283 291 288 285 281 282 276 275 278 281 286 297 7 132 159 183 240 138 107 94 79
4 327 289 290 269 219 272 217 36 26 329 317 331 344 307 25 349 345 331 302 294 287 280 282 295 303 288 304 307 289 278 280 290 331 349 322 111 147 158 162 94 97 69 67 71